Time,TemperatureF,DewpointF,PressureIn,WindDirection,WindDirectionDegrees,WindSpeedMPH,WindSpeedGustMPH,Humidity,HourlyPrecipIn,Conditions,Clouds,dailyrainin,SoftwareType,DateUTC
2013-12-04 00:11:00,74.7,70.0,29.95,South,180,0.0,4.0,85,0.00,,,0.00,weatherlink.com 1.10,2013-12-04 10:11:00,
2013-12-04 00:28:00,75.1,70.0,29.95,South,170,0.0,3.0,84,0.00,,,0.00,weatherlink.com 1.10,2013-12-04 10:28:00,
2013-12-04 00:46:00,74.9,69.0,29.95,SE,138,0.0,6.0,83,0.00,,,0.00,weatherlink.com 1.10,2013-12-04 10:46:00,
2013-12-04 01:03:00,74.6,69.0,29.95,SE,138,0.0,1.0,84,0.00,,,0.00,weatherlink.com 1.10,2013-12-04 11:03:00,
2013-12-04 01:20:00,74.6,70.0,29.95,SSE,168,0.0,4.0,86,0.00,,,0.00,weatherlink.com 1.10,2013-12-04 11:20:00,
2013-12-04 01:38:00,74.5,70.0,29.94,SSW,200,0.0,3.0,85,0.00,,,0.00,weatherlink.com 1.10,2013-12-04 11:38:00,
2013-12-04 01:54:00,74.2,70.0,29.94,East,101,0.0,3.0,86,0.00,,,0.00,weatherlink.com 1.10,2013-12-04 11:54:00,
2013-12-04 02:12:00,73.2,69.0,29.93,East,101,0.0,0.0,88,0.00,,,0.00,weatherlink.com 1.10,2013-12-04 12:12:00,
2013-12-04 02:29:00,72.2,69.0,29.93,East,101,0.0,0.0,89,0.00,,,0.00,weatherlink.com 1.10,2013-12-04 12:29:00,
2013-12-04 02:47:00,71.3,69.0,29.92,East,101,0.0,0.0,91,0.00,,,0.00,weatherlink.com 1.10,2013-12-04 12:47:00,
2013-12-04 03:04:00,70.4,68.0,29.92,East,101,0.0,0.0,92,0.00,,,0.00,weatherlink.com 1.10,2013-12-04 13:04:00,
2013-12-04 03:22:00,69.9,68.0,29.91,East,101,0.0,0.0,93,0.00,,,0.00,weatherlink.com 1.10,2013-12-04 13:22:00,
2013-12-04 03:39:00,69.5,68.0,29.91,East,101,0.0,0.0,94,0.00,,,0.00,weatherlink.com 1.10,2013-12-04 13:39:00,
2013-12-04 03:56:00,69.2,67.0,29.90,East,101,0.0,0.0,94,0.00,,,0.00,weatherlink.com 1.10,2013-12-04 13:56:00,
2013-12-04 04:13:00,68.6,67.0,29.91,East,101,0.0,0.0,94,0.00,,,0.00,weatherlink.com 1.10,2013-12-04 14:13:00,
2013-12-04 04:31:00,68.1,66.0,29.91,East,101,0.0,0.0,94,0.00,,,0.00,weatherlink.com 1.10,2013-12-04 14:31:00,
2013-12-04 04:48:00,67.9,66.0,29.90,East,101,0.0,0.0,94,0.00,,,0.00,weatherlink.com 1.10,2013-12-04 14:48:00,
2013-12-04 05:05:00,67.6,66.0,29.91,East,101,0.0,0.0,95,0.00,,,0.00,weatherlink.com 1.10,2013-12-04 15:05:00,
2013-12-04 05:23:00,67.3,66.0,29.92,East,101,0.0,0.0,95,0.00,,,0.00,weatherlink.com 1.10,2013-12-04 15:23:00,
2013-12-04 05:40:00,67.1,66.0,29.92,East,101,0.0,0.0,95,0.00,,,0.00,weatherlink.com 1.10,2013-12-04 15:40:00,
2013-12-04 05:57:00,66.8,65.0,29.93,East,101,0.0,0.0,95,0.00,,,0.00,weatherlink.com 1.10,2013-12-04 15:57:00,
2013-12-04 06:15:00,66.6,65.0,29.93,East,101,0.0,0.0,95,0.00,,,0.00,weatherlink.com 1.10,2013-12-04 16:15:00,
2013-12-04 06:32:00,66.6,65.0,29.93,East,101,0.0,0.0,95,0.00,,,0.00,weatherlink.com 1.10,2013-12-04 16:32:00,
2013-12-04 06:50:00,66.7,65.0,29.94,East,101,0.0,0.0,95,0.00,,,0.00,weatherlink.com 1.10,2013-12-04 16:50:00,
2013-12-04 07:07:00,66.9,66.0,29.95,East,101,0.0,0.0,96,0.00,,,0.00,weatherlink.com 1.10,2013-12-04 17:07:00,
2013-12-04 07:24:00,67.6,66.0,29.96,East,101,0.0,1.0,96,0.00,,,0.00,weatherlink.com 1.10,2013-12-04 17:24:00,
2013-12-04 07:41:00,68.3,67.0,29.96,East,101,0.0,0.0,96,0.00,,,0.00,weatherlink.com 1.10,2013-12-04 17:41:00,
2013-12-04 07:59:00,69.4,68.0,29.97,East,101,0.0,0.0,96,0.00,,,0.00,weatherlink.com 1.10,2013-12-04 17:59:00,
2013-12-04 08:18:00,71.9,71.0,29.97,East,101,0.0,0.0,97,0.00,,,0.00,weatherlink.com 1.10,2013-12-04 18:18:00,
2013-12-04 08:35:00,75.3,73.0,29.97,East,101,0.0,0.0,93,0.00,,,0.00,weatherlink.com 1.10,2013-12-04 18:35:00,
2013-12-04 08:52:00,77.1,72.0,29.97,East,101,0.0,0.0,84,0.00,,,0.00,weatherlink.com 1.10,2013-12-04 18:52:00,
2013-12-04 09:10:00,78.3,72.0,29.98,North,360,0.0,2.0,80,0.00,,,0.00,weatherlink.com 1.10,2013-12-04 19:10:00,
2013-12-04 09:27:00,78.8,71.0,29.99,ESE,123,1.0,6.0,76,0.00,,,0.00,weatherlink.com 1.10,2013-12-04 19:27:00,
2013-12-04 09:44:00,79.6,71.0,29.98,SE,146,3.0,7.0,74,0.00,,,0.00,weatherlink.com 1.10,2013-12-04 19:44:00,
2013-12-04 10:02:00,80.5,71.0,29.98,East,101,0.0,7.0,74,0.00,,,0.00,weatherlink.com 1.10,2013-12-04 20:02:00,
2013-12-04 10:19:00,81.1,72.0,29.98,NNE,23,0.0,7.0,73,0.00,,,0.00,weatherlink.com 1.10,2013-12-04 20:19:00,
2013-12-04 10:36:00,81.8,72.0,29.98,ENE,61,1.0,4.0,72,0.00,,,0.00,weatherlink.com 1.10,2013-12-04 20:36:00,
2013-12-04 10:53:00,81.3,71.0,29.98,South,174,2.0,7.0,71,0.00,,,0.00,weatherlink.com 1.10,2013-12-04 20:53:00,
2013-12-04 11:11:00,81.6,72.0,29.97,East,94,1.0,6.0,72,0.00,,,0.00,weatherlink.com 1.10,2013-12-04 21:11:00,
2013-12-04 11:28:00,81.6,71.0,29.96,East,98,0.0,4.0,70,0.00,,,0.00,weatherlink.com 1.10,2013-12-04 21:28:00,
2013-12-04 11:45:00,80.8,71.0,29.96,NE,42,0.0,3.0,73,0.00,,,0.00,weatherlink.com 1.10,2013-12-04 21:45:00,
2013-12-04 12:02:00,81.1,70.0,29.95,SSW,195,0.0,4.0,70,0.00,,,0.00,weatherlink.com 1.10,2013-12-04 22:02:00,
2013-12-04 12:19:00,81.5,71.0,29.93,ESE,115,0.0,5.0,71,0.00,,,0.00,weatherlink.com 1.10,2013-12-04 22:19:00,
2013-12-04 12:37:00,81.2,71.0,29.92,South,183,0.0,6.0,72,0.00,,,0.00,weatherlink.com 1.10,2013-12-04 22:37:00,
2013-12-04 12:54:00,81.7,71.0,29.90,South,171,0.0,3.0,71,0.00,,,0.00,weatherlink.com 1.10,2013-12-04 22:54:00,
2013-12-04 13:11:00,80.6,70.0,29.89,South,178,0.0,6.0,70,0.00,,,0.00,weatherlink.com 1.10,2013-12-04 23:11:00,
2013-12-04 13:28:00,80.2,70.0,29.89,East,86,0.0,8.0,71,0.00,,,0.00,weatherlink.com 1.10,2013-12-04 23:28:00,
2013-12-04 13:46:00,80.5,70.0,29.89,NNW,336,6.0,8.0,70,0.00,,,0.00,weatherlink.com 1.10,2013-12-04 23:46:00,
2013-12-04 14:03:00,80.5,71.0,29.88,ENE,69,0.0,4.0,72,0.00,,,0.00,weatherlink.com 1.10,2013-12-05 00:03:00,
2013-12-04 14:20:00,80.5,71.0,29.88,East,82,1.0,4.0,72,0.00,,,0.00,weatherlink.com 1.10,2013-12-05 00:20:00,
2013-12-04 14:37:00,80.5,69.0,29.88,South,171,0.0,5.0,69,0.00,,,0.00,weatherlink.com 1.10,2013-12-05 00:37:00,
2013-12-04 14:55:00,78.8,69.0,29.88,NNE,26,0.0,6.0,73,0.00,,,0.00,weatherlink.com 1.10,2013-12-05 00:55:00,
2013-12-04 15:12:00,77.9,69.0,29.89,East,98,0.0,2.0,74,0.00,,,0.00,weatherlink.com 1.10,2013-12-05 01:12:00,
2013-12-04 15:29:00,78.0,69.0,29.89,ESE,103,0.0,2.0,74,0.00,,,0.00,weatherlink.com 1.10,2013-12-05 01:29:00,
2013-12-04 15:47:00,79.1,70.0,29.89,ENE,69,0.0,3.0,74,0.00,,,0.00,weatherlink.com 1.10,2013-12-05 01:47:00,
2013-12-04 16:04:00,77.6,69.0,29.90,NE,42,0.0,6.0,75,0.00,,,0.00,weatherlink.com 1.10,2013-12-05 02:04:00,
2013-12-04 16:21:00,77.1,70.0,29.91,North,360,0.0,3.0,78,0.00,,,0.00,weatherlink.com 1.10,2013-12-05 02:21:00,
2013-12-04 16:39:00,77.0,69.0,29.91,North,360,0.0,5.0,77,0.00,,,0.00,weatherlink.com 1.10,2013-12-05 02:39:00,
2013-12-04 16:56:00,77.0,70.0,29.92,NNE,16,0.0,5.0,78,0.00,,,0.00,weatherlink.com 1.10,2013-12-05 02:56:00,
2013-12-04 17:13:00,76.7,70.0,29.92,ENE,61,0.0,2.0,79,0.00,,,0.00,weatherlink.com 1.10,2013-12-05 03:13:00,
2013-12-04 17:31:00,75.9,69.0,29.92,East,95,0.0,0.0,78,0.00,,,0.00,weatherlink.com 1.10,2013-12-05 03:31:00,
2013-12-04 17:49:00,75.1,68.0,29.92,ENE,75,0.0,0.0,78,0.00,,,0.00,weatherlink.com 1.10,2013-12-05 03:49:00,
2013-12-04 18:06:00,74.8,68.0,29.93,ENE,70,0.0,0.0,80,0.00,,,0.00,weatherlink.com 1.10,2013-12-05 04:06:00,
2013-12-04 18:23:00,74.4,68.0,29.94,ENE,70,0.0,0.0,81,0.00,,,0.00,weatherlink.com 1.10,2013-12-05 04:23:00,
2013-12-04 18:40:00,74.0,68.0,29.94,NE,36,0.0,0.0,82,0.00,,,0.00,weatherlink.com 1.10,2013-12-05 04:40:00,
2013-12-04 18:58:00,73.8,68.0,29.95,East,100,0.0,0.0,82,0.00,,,0.00,weatherlink.com 1.10,2013-12-05 04:58:00,
2013-12-04 19:16:00,73.6,68.0,29.96,ESE,104,0.0,0.0,83,0.00,,,0.00,weatherlink.com 1.10,2013-12-05 05:16:00,
2013-12-04 19:33:00,72.6,68.0,29.96,ESE,104,0.0,0.0,85,0.00,,,0.00,weatherlink.com 1.10,2013-12-05 05:33:00,
2013-12-04 19:51:00,73.1,68.0,29.96,SE,139,0.0,1.0,83,0.00,,,0.00,weatherlink.com 1.10,2013-12-05 05:51:00,
2013-12-04 20:08:00,73.8,68.0,29.97,SE,134,0.0,1.0,82,0.00,,,0.00,weatherlink.com 1.10,2013-12-05 06:08:00,
2013-12-04 20:25:00,74.1,68.0,29.97,SE,128,0.0,1.0,82,0.00,,,0.00,weatherlink.com 1.10,2013-12-05 06:25:00,
2013-12-04 20:43:00,74.2,68.0,29.97,ESE,116,0.0,1.0,81,0.00,,,0.00,weatherlink.com 1.10,2013-12-05 06:43:00,
2013-12-04 21:01:00,74.5,68.0,29.97,ESE,109,0.0,1.0,80,0.00,,,0.00,weatherlink.com 1.10,2013-12-05 07:01:00,
2013-12-04 21:18:00,74.4,68.0,29.97,SSE,162,0.0,4.0,80,0.00,,,0.00,weatherlink.com 1.10,2013-12-05 07:18:00,
2013-12-04 21:35:00,74.1,68.0,29.98,SE,128,0.0,2.0,80,0.00,,,0.00,weatherlink.com 1.10,2013-12-05 07:35:00,
2013-12-04 21:53:00,73.8,67.0,29.98,SSE,168,0.0,1.0,80,0.00,,,0.00,weatherlink.com 1.10,2013-12-05 07:53:00,
2013-12-04 22:09:00,73.4,67.0,29.98,SSE,156,0.0,2.0,80,0.00,,,0.00,weatherlink.com 1.10,2013-12-05 08:09:00,
2013-12-04 22:26:00,73.3,67.0,29.98,ESE,123,0.0,0.0,80,0.00,,,0.00,weatherlink.com 1.10,2013-12-05 08:26:00,
2013-12-04 22:44:00,72.2,67.0,29.98,ESE,123,0.0,0.0,84,0.00,,,0.00,weatherlink.com 1.10,2013-12-05 08:44:00,
2013-12-04 23:01:00,70.9,67.0,29.98,ESE,123,0.0,0.0,87,0.00,,,0.00,weatherlink.com 1.10,2013-12-05 09:01:00,
2013-12-04 23:19:00,69.9,66.0,29.97,ESE,123,0.0,0.0,88,0.00,,,0.00,weatherlink.com 1.10,2013-12-05 09:19:00,
2013-12-04 23:36:00,69.2,66.0,29.96,ESE,123,0.0,0.0,89,0.00,,,0.00,weatherlink.com 1.10,2013-12-05 09:36:00,
2013-12-04 23:53:00,68.9,66.0,29.96,ESE,123,0.0,0.0,90,0.00,,,0.00,weatherlink.com 1.10,2013-12-05 09:53:00,